IRIDIUM 110

Last updated on Tue Sep 22 2026 00:03:21 GMT+0000 (Coordinated Universal Time)

1 43481U 18047F 26264.18576692 .00000056 00000+0 12842-4 0 9995 2 43481 86.3954 48.2600 0002355 95.0635 265.0829 14.34217968436235
UTC large
Height (km)
Speed (km/s)
/
Latitude / Longitude
Inclination (degrees)
Orbital Period (minutes)
Azimuth
Elevation
Range (km)
Doppler Factor

Next 0 passes for location: London (51.5072 / 0.1276)

No passes found over London.
IRIDIUM 110